Flag for Brazil Weather past 2 weeks in Florianópolis, Santa Catarina, Brazil

Now
70 °F

Partly cloudy.


Feels Like: 70 °F
Forecast: 67 / 72 °F
Wind: 9 mph from South

Location: Florianopolis Aeroporto

Current Time: May 25, 2015 at 3:08:07 AM

Latest Report: May 25, 2015 at 2:00 AM


Visibility: N/A

Pressure: 29.98 "Hg

Humidity: 88%

Dew point: 66 °F

Location of FlorianópolisLocation

Historic Weather in Florianópolis — Graph

°F

Florianópolis temperature yesterday

Maximum temperature yesterday: 77 °F (at 9:00 AM)
Minimum temperature yesterday: 70 °F (at 8:00 PM)
Average temperature yesterday: 73 °F

Past Weeks' High & Low Weather Summary

 TemperatureHumidityPressure
High79 °F (May 11, 2:00 PM)94% (May 11, 4:00 AM)30.30 "Hg (May 11, 4:00 AM)
Low61 °F (May 11, 5:00 AM)48% (May 11, 2:00 PM)29.77 "Hg (May 11, 2:00 PM)
Average70 °F84%30.13 "Hg
* Reported May 10 2:00 AM — May 25 2:00 AM, Florianópolis, Weather by CustomWeather, © 2015

Note: Actual official high and low records may vary slightly from our data, if they occured in-between our weather recording intervals... More about our weather records

Advertising

Florianópolis weather history for previous 24 hours

 ConditionsComfort  
Time TempWeatherWind HumidityBarometerVisibility
2:00 AM
Mon, May 25
70 °FPartly cloudy.9 mph88%29.98 "HgN/A
1:00 AM70 °FPartly cloudy.5 mph88%29.98 "HgN/A
12:00 AM70 °FPartly cloudy.No wind88%29.98 "HgN/A
11:00 PM
Sun, May 24
70 °FPartly cloudy.6 mph88%29.98 "HgN/A
10:00 PM70 °FPartly cloudy.No wind88%29.98 "HgN/A
9:00 PM70 °FLight rain. Partly cloudy.6 mph88%29.98 "Hg6 mi
8:00 PM70 °FLight rain. Partly cloudy.10 mph88%29.98 "HgN/A
7:00 PM72 °FPassing clouds.5 mph83%29.95 "HgN/A
6:00 PM72 °FPartly cloudy.8 mph83%29.92 "HgN/A
5:00 PM72 °FPartly cloudy.6 mph83%29.92 "HgN/A
4:00 PM72 °FBroken clouds.5 mph88%29.89 "Hg6 mi
3:00 PM72 °FBroken clouds.5 mph88%29.89 "Hg5 mi
2:00 PM75 °FPartly sunny.6 mph78%29.89 "HgN/A
1:00 PM75 °FPartly sunny.5 mph78%29.89 "HgN/A
12:00 PM73 °FScattered clouds.8 mph83%29.89 "HgN/A
11:00 AM75 °FPassing clouds.7 mph78%29.92 "HgN/A
10:00 AM77 °FPassing clouds.7 mph74%29.89 "HgN/A
9:00 AM77 °FPassing clouds.7 mph74%29.89 "HgN/A
8:00 AM73 °FPassing clouds.8 mph83%29.86 "HgN/A
7:00 AM75 °FScattered clouds.2 mph74%29.83 "HgN/A
6:00 AM73 °FPassing clouds.5 mph83%29.80 "HgN/A
5:00 AM73 °FClear.5 mph83%29.77 "Hg10 mi
4:00 AM73 °FPassing clouds.10 mph83%29.77 "HgN/A
3:00 AM73 °FPassing clouds.13 mph83%29.80 "HgN/A
Weather by CustomWeather, © 2015

See weather overviewHow to use our weather pages